Content
SEND FEEDBACK

Daily
Averages
Monthly
Summary
United States of America

ST. LOUIS, MISSOURI


Home > North America > United States > Missouri
Elevation: 163 meters     Latitude: 38 45N     Longitude: 090 22W

WEATHER
 
SELECT A DAY
Number of Records: 201,463;   Date Range: 1/1/95 - 12/26/14
 
SHARE

PRINT THIS DATA

[ ← Previous Day ]
WEATHER ALMANAC - 22 JANUARY, 2013
[ Next Day → ]
[ °F ]   °C
Weather ElementAverageHighLow
Temperature-9.1 °C-7.8 °C (2:54 pm)-10.6 °C (4:54 am)
Dewpoint-15.4 °C-12.2 °C (6:54 pm)-19.4 °C (2:54 am)
Humidity61.9 %84 % (11:54 pm)45 % (2:54 am)
Barometer1031.2 hPa1033.9 hPa (10:54 am)1029.8 hPa (1:20 pm)
Wind Speed4 km/h9.3 km/h (3:54 am)
Weather ElementAverage
Visibility14.5 km
Wind DirectionSE (132 °)

Weather ElementTotal
Precipitation---
Heating Degree Days27.6 (Base 18.3)
Averaged from 25 records on 22 January, 2013
WEATHER CONDITIONS BREAKOUT
WIND DIRECTION BREAKOUT
WEATHER BY HOUR - 22 JANUARY, 2013
[ °F ]   °C
Local TimeTemperatureDewpointHumidityBarometerVisibilityWind DirectionWind SpeedGust SpeedPrecipitationEventsConditions
1:54 AM-9.4 °C-18.3 °C49 %1030.5 hPa16.1 kmNNW (330°)7.4 km/hOvercast
2:54 AM-9.4 °C-19.4 °C45 %1030.8 hPa16.1 kmNNW (340°)7.4 km/hMostly Cloudy
3:54 AM-10 °C-18.3 °C52 %1031.2 hPa16.1 kmNNW (330°)9.3 km/hOvercast
4:54 AM-10.6 °C-18.3 °C54 %1031.5 hPa16.1 kmNW (320°)9.3 km/hClear
5:54 AM-10.6 °C-18.3 °C54 %1031.5 hPa16.1 kmNNW (340°)5.6 km/hScattered Clouds
6:54 AM-10 °C-18.9 °C49 %1031.8 hPa16.1 kmNorth (360°)5.6 km/hMostly Cloudy
7:54 AM-10 °C-18.9 °C49 %1032.2 hPa16.1 kmCalmMostly Cloudy
8:54 AM-9.4 °C-18.9 °C47 %1032.8 hPa16.1 kmCalmOvercast
9:54 AM-8.9 °C-18.9 °C45 %1033.2 hPa16.1 kmVariable5.6 km/hOvercast
10:54 AM-8.9 °C-18.9 °C45 %1033.9 hPa16.1 kmWest (280°)5.6 km/hOvercast
11:54 AM-8.3 °C-16.7 °C52 %1033.2 hPa11.3 kmNNW (330°)5.6 km/h0 mmSnowLight Snow
12:39 PM-8 °C-14 °C63 %1030.5 hPa3.2 kmNNW (340°)5.6 km/h0 mmSnowLight Snow
12:54 PM-8.9 °C-13.3 °C71 %1031.8 hPa3.2 kmCalm0 mmSnowLight Snow
1:20 PM-9 °C-13 °C73 %1029.8 hPa11.3 kmCalm0 mmSnowLight Snow
1:54 PM-8.3 °C-13.3 °C68 %1031.2 hPa12.9 kmCalm0 mmOvercast
2:54 PM-7.8 °C-12.8 °C68 %1031.2 hPa16.1 kmNE (40°)5.6 km/hOvercast
3:54 PM-7.8 °C-13.3 °C65 %1030.5 hPa16.1 kmCalmOvercast
4:54 PM-7.8 °C-13.3 °C65 %1030.5 hPa16.1 kmCalmOvercast
5:54 PM-7.8 °C-12.8 °C68 %1029.8 hPa16.1 kmENE (60°)9.3 km/hOvercast
6:54 PM-7.8 °C-12.2 °C71 %1030.1 hPa16.1 kmENE (60°)7.4 km/hOvercast
7:54 PM-9.4 °C-12.8 °C77 %1030.1 hPa16.1 kmEast (100°)5.6 km/hClear
8:54 PM-9.4 °C-12.8 °C77 %1030.1 hPa16.1 kmENE (70°)5.6 km/hClear
9:54 PM-9.4 °C-12.8 °C77 %1030.1 hPa16.1 kmCalmClear
10:54 PM-10 °C-12.8 °C80 %1030.1 hPa16.1 kmCalmClear
11:54 PM-10 °C-12.2 °C84 %1030.1 hPa16.1 kmCalmClear
Hourly data recorded from KSUS, located 0 kilometers away from St. Louis, Missouri







STORIES FROM OUR PARTNERS